Regional Weather Roundup
Issued by NWS Sioux Falls, SD

Home | Current Version | Previous Version | Graphics & Text | Print | Product List | Glossary Off
Versions: 1 2 3 4 5 6 7 8 9 10 11 12 13 14 15 16 17 18 19 20 21 22 23 24 25 26 27 28 29 30 31 32 33 34 35 36 37 38 39 40 41 42 43 44 45 46 47 48 49 50

000
ASUS43 KFSD 292302
RWRFSD

WEATHER ROUNDUP FOR SE SOUTH DAKOTA/SW MINNESOTA/NW IOWA
NATIONAL WEATHER SERVICE SIOUX FALLS SD
600 PM CDT SAT AUG 29 2015

NOTE: "FAIR" INDICATES FEW OR NO CLOUDS BELOW 12,000 FEET WITH NO
SIGNIFICANT WEATHER AND OR OBSTRUCTIONS TO VISIBILITY.


SDZ038>040-050-052>070-300000-
SOUTHEAST SOUTH DAKOTA

CITY           SKY/WX    TMP DP  RH WIND       PRES   REMARKS
BROOKINGS      SUNNY     75  64  69 S10       30.01S
CHAMBERLAIN    SUNNY     84  71  66 S7        29.93F
HURON          SUNNY     82  70  66 S14       29.92F
MADISON        FAIR      73  66  78 S12       30.00F
MITCHELL       SUNNY     80  68  66 S13       29.96F
SIOUX FALLS    CLOUDY    74  65  73 S9        30.00F
WINNER         FAIR      88  64  44 S9        29.95F
YANKTON        SUNNY     77  66  69 SE9       29.98F
$$

MNZ071-072-080-081-089-090-097-098-300000-
SOUTHWEST MINNESOTA

CITY           SKY/WX    TMP DP  RH WIND       PRES   REMARKS
FAIRMONT       MOSUNNY   70  59  68 S7        30.04F
JACKSON        MOSUNNY   72  64  78 S5        30.04F
LUVERNE        MOSUNNY   73  63  68 S6        30.03S
MARSHALL       MOSUNNY   77  61  57 S10       30.01F
MONTEVIDEO     PTSUNNY   75  66  73 S7        29.99F
PIPESTONE      MOSUNNY   73  64  73 S7        30.02F
REDWOOD FALLS  PTSUNNY   74  65  73 SE7       30.01S
TRACY          PTSUNNY   75  65  71 S8        30.01F
WINDOM         MOSUNNY   73  64  73 S3        30.04R
WORTHINGTON    MOSUNNY   70  63  78 S8        30.03F
$$

IAZ001>003-012>014-020>022-031-032-NEZ013-014-SDZ071-300000-
NORTHWEST IOWA

CITY           SKY/WX    TMP DP  RH WIND       PRES   REMARKS
DENISON        CLOUDY    68  63  83 SE3       30.03F
ESTHERVILLE    MOSUNNY   69  64  84 S8        30.04S
SIOUX CITY     MOSUNNY   70  63  78 SE9       30.03F
SPENCER        MOSUNNY   72  64  76 S7        30.04F
$$

ABBREVIATIONS USED IN REMARKS
   TC - TEMPERATURE IN CELSIUS
  WCI - WIND CHILL INDEX
   HX - HEAT INDEX
  VSB - VISIBILITY



USA.gov is the U.S. government's official web portal to all federal, state and local government web resources and services.